Total_Precipitation_Accumulation
2.67 2.36 3.65 3.76 3.37 3.15 3.19 3.34 3.56 3.57 3.49 3.31 3.20 3.03 2.84 2.59 2.48 2.54 2.46 2.53 2.56 2.60 2.68 2.77 2.75 2.90 2.82 2.60 2.54 2.63 2.66 2.63 2.70 2.63 2.36 2.43 2.73 2.75 2.63 2.97 3.78 4.39 4.08
1.83 1.97 3.28 3.55 3.22 3.01 3.02 3.32 3.57 3.57 3.58 3.55 3.22 2.91 2.70 2.41 2.25 2.32 2.36 2.38 2.37 2.39 2.44 2.62 2.83 3.22 3.11 2.82 2.73 2.78 2.68 2.75 2.78 2.81 2.79 2.71 2.81 2.88 2.75 2.90 3.43 3.78 3.56
1.52 1.68 2.47 3.39 3.28 3.07 3.17 3.32 3.34 3.31 3.23 3.12 2.94 2.71 2.60 2.38 2.29 2.32 2.36 2.40 2.32 2.28 2.21 2.39 2.71 3.02 3.18 2.98 2.81 2.73 2.61 2.65 2.67 2.88 3.47 3.96 3.19 2.97 2.96 2.86 3.14 3.07 3.03
1.41 1.51 1.88 3.16 3.25 3.11 3.21 3.27 3.13 2.99 2.86 2.67 2.59 2.56 2.49 2.37 2.20 2.22 2.34 2.46 2.33 2.30 2.25 2.34 2.60 2.77 2.92 2.89 2.73 2.53 2.30 2.37 2.59 2.77 3.31 3.91 3.66 3.39 3.34 3.21 3.16 2.86 2.90
1.32 1.48 2.04 3.04 3.12 3.07 3.00 2.99 3.04 2.87 2.70 2.46 2.27 2.32 2.27 2.24 2.15 2.23 2.32 2.27 2.23 2.27 2.11 2.13 2.37 2.57 2.79 2.78 2.68 2.54 2.33 2.34 2.56 2.23 2.57 3.34 4.04 3.97 3.39 3.28 3.28 2.98 2.96
1.36 1.48 2.03 2.76 2.90 2.91 2.84 2.77 2.72 2.59 2.44 2.34 2.17 2.20 2.24 2.23 2.17 2.15 2.07 2.06 2.14 2.21 2.11 2.02 2.13 2.44 2.77 2.70 2.65 2.74 2.74 2.60 2.27 2.13 2.57 3.24 3.98 4.05 3.52 3.34 3.16 3.11 3.05
1.49 1.46 1.85 2.54 2.69 2.75 2.67 2.50 2.46 2.42 2.29 2.22 2.12 2.00 2.03 2.13 2.16 2.13 2.16 2.17 2.14 2.16 2.16 2.11 2.18 2.27 2.51 2.59 2.70 2.71 2.60 2.30 1.99 2.25 2.47 3.02 3.52 3.89 3.54 3.55 3.46 3.42 3.25
1.54 1.48 1.65 2.24 2.51 2.56 2.50 2.41 2.36 2.28 2.19 2.07 1.91 1.86 1.93 2.04 2.05 1.97 1.96 2.02 2.00 1.98 2.04 2.01 2.06 2.04 2.11 2.32 2.57 2.77 2.63 1.98 1.67 1.87 2.10 2.77 3.68 3.88 3.46 3.60 3.79 3.78 3.67
1.79 1.66 1.55 1.69 1.92 2.17 2.42 2.43 2.47 2.43 2.36 2.18 1.94 1.87 2.01 2.07 1.97 1.84 1.93 2.02 2.04 2.06 2.14 2.13 2.14 2.11 2.13 2.36 2.57 2.76 2.55 1.90 1.78 1.91 1.81 2.74 3.91 3.66 3.17 3.16 3.50 3.63 3.72
1.66 1.62 1.52 1.55 1.63 1.76 2.02 2.37 2.66 2.74 2.78 2.44 2.05 1.94 1.89 1.85 1.85 1.92 1.94 2.05 2.21 2.33 2.46 2.47 2.35 2.20 2.22 2.34 2.46 2.44 2.13 1.73 1.80 1.86 2.26 2.88 3.86 3.67 3.04 2.76 3.03 3.13 3.27
1.28 1.30 1.35 1.45 1.59 1.64 1.77 1.95 2.44 2.69 2.77 2.36 1.89 1.88 1.74 1.59 1.59 1.78 1.87 2.33 2.46 2.54 2.74 2.82 2.62 2.35 2.14 2.07 2.15 2.12 1.78 1.52 1.67 2.00 2.52 3.28 3.77 3.66 3.11 2.79 2.64 2.76 2.85
1.10 1.01 1.00 1.01 1.13 1.34 1.45 1.81 2.24 2.30 2.36 1.97 1.72 1.70 1.65 1.74 1.69 1.46 1.68 2.24 2.50 2.55 2.39 2.39 2.45 2.13 1.76 1.51 1.49 1.53 1.53 1.51 1.73 2.03 2.63 3.71 4.02 3.84 3.30 2.85 2.56 2.62 2.66
0.81 0.79 0.79 0.86 0.88 1.06 1.44 1.78 2.08 2.26 2.31 2.24 2.14 1.86 1.82 1.73 1.54 1.41 1.48 1.60 1.74 1.82 1.71 1.74 1.79 1.62 1.54 1.41 1.36 1.33 1.31 1.49 1.94 2.18 2.88 3.85 4.27 4.08 3.63 3.18 2.81 2.84 2.93
0.81 0.82 0.74 0.69 0.78 0.96 1.16 1.42 1.81 2.07 2.13 2.09 1.98 1.62 1.63 1.67 1.53 1.49 1.62 1.75 1.74 1.77 1.90 1.84 1.82 1.71 1.54 1.33 1.31 1.38 1.38 1.42 1.75 2.10 2.75 3.39 4.15 4.51 4.11 3.59 3.24 3.19 3.16
0.94 1.02 0.95 0.79 0.79 0.90 1.07 1.16 1.38 1.63 1.71 1.98 1.98 1.53 1.36 1.41 1.52 1.53 1.46 1.69 1.79 1.86 1.93 1.93 1.85 1.72 1.68 1.49 1.49 1.53 1.58 1.43 1.58 1.77 2.27 2.77 3.42 4.31 4.50 4.13 3.83 3.74 3.50
0.80 0.92 0.96 0.96 0.99 0.99 1.02 1.06 1.15 1.22 1.34 1.46 1.45 1.25 1.18 1.20 1.34 1.55 1.46 1.47 1.61 1.82 1.96 1.95 1.88 1.93 1.89 1.68 1.66 1.72 1.69 1.62 1.65 1.73 1.97 2.08 2.34 3.06 3.84 4.26 4.37 4.19 3.81
0.68 0.77 0.87 0.93 1.00 1.06 1.16 1.20 1.14 1.15 1.26 1.27 1.20 1.18 1.20 1.16 1.26 1.51 1.44 1.35 1.39 1.56 1.74 1.98 2.05 2.07 1.87 1.79 1.82 1.80 1.68 1.67 1.68 1.86 1.93 2.02 1.96 2.15 2.78 3.34 3.90 4.08 4.13
0.71 0.72 0.78 0.74 0.86 1.00 1.17 1.27 1.29 1.26 1.32 1.26 1.10 1.06 1.04 1.04 1.07 1.30 1.40 1.32 1.34 1.54 1.79 2.06 2.27 2.34 2.14 2.09 2.14 2.04 1.79 1.75 1.70 1.82 1.89 2.03 2.15 1.93 1.99 2.21 2.71 3.34 3.88
0.78 0.73 0.74 0.77 0.81 0.85 0.99 1.15 1.18 1.19 1.25 1.22 1.13 1.10 1.02 0.97 0.99 1.24 1.48 1.52 1.51 1.71 1.86 1.86 2.14 2.31 2.41 2.31 2.15 2.02 1.94 1.92 1.90 1.84 1.98 2.00 2.11 2.05 1.87 1.63 1.74 2.28 2.98
0.90 0.87 0.90 0.84 0.79 0.80 0.84 0.97 1.08 1.07 1.10 1.18 1.13 1.15 1.17 1.19 1.22 1.44 1.70 1.72 1.79 1.89 2.02 2.25 2.54 2.54 2.47 2.50 2.22 1.98 1.85 1.87 1.96 2.08 2.05 2.05 2.14 1.96 1.79 1.64 1.61 1.62 2.20
0.83 0.81 0.84 0.88 0.82 0.77 0.72 0.81 0.92 0.98 1.10 1.20 1.29 1.37 1.36 1.34 1.41 1.64 1.84 2.05 2.18 2.09 2.13 2.42 2.74 2.84 2.60 2.45 2.58 2.44 2.23 2.02 2.02 2.01 2.00 2.07 2.13 2.06 1.97 1.91 1.87 1.75 1.86
0.67 0.68 0.74 0.79 0.77 0.71 0.66 0.72 0.85 1.00 1.11 1.26 1.45 1.69 1.61 1.47 1.49 1.53 1.81 1.99 2.08 2.23 2.27 2.38 2.71 3.05 2.78 2.49 2.78 3.25 3.02 2.77 2.22 1.88 2.02 2.06 2.17 2.18 2.12 1.99 2.02 1.93 1.92
0.56 0.64 0.69 0.73 0.74 0.76 0.85 1.02 1.30 1.59 1.75 1.81 1.84 2.07 2.09 1.91 1.84 1.80 1.86 2.00 2.09 2.30 2.46 2.49 2.57 2.93 2.97 2.69 2.67 3.33 3.40 3.23 2.94 2.37 2.00 2.07 2.25 2.34 2.36 2.28 2.13 2.07 1.96
0.53 0.64 0.72 0.74 0.83 0.85 1.00 1.34 1.77 2.11 2.31 2.27 2.32 2.37 2.46 2.34 2.16 2.16 2.18 2.30 2.24 2.24 2.35 2.33 2.32 2.59 2.95 2.98 2.76 2.59 2.58 2.78 3.23 2.97 2.36 2.18 2.21 2.23 2.38 2.24 2.24 2.28 2.20
0.59 0.67 0.80 0.90 1.06 1.25 1.36 1.56 1.87 2.03 2.09 2.24 2.42 2.66 2.83 2.87 2.80 2.76 2.68 2.51 2.31 2.26 2.33 2.38 2.39 2.51 2.64 2.81 2.79 2.60 2.52 2.49 2.46 2.80 2.80 2.52 2.28 2.16 2.25 2.29 2.32 2.34 2.32
0.76 0.85 0.91 1.11 1.25 1.31 1.45 1.59 1.71 1.79 1.89 2.10 2.28 2.53 2.72 2.76 2.82 2.75 2.56 2.28 2.11 2.07 2.16 2.33 2.36 2.44 2.46 2.54 2.52 2.36 2.35 2.38 2.42 2.66 2.68 2.62 2.57 2.24 2.06 2.09 2.16 2.22 2.13